Estación Meteorológica de la Universidad de Murcia
Estación Meteorológica de la Universidad de Murcia
Universidad de Murcia
 

Temperatura ambienteTemperatura ambiente

 

Máxima: 39,4 ºC a las 13:59:00 del día 24/06/2017
Mínima: 22,6 ºC a las 06:22:00 del día 24/06/2017

||Temperatura máxima últimos meses|| ---- ||Temperatura mínima últimos meses||


Temperatura máxima

  • 1 - 39,4 ºC del día 24/06/2017
  • 2 - 39,7 ºC del día 23/06/2017
  • 3 - 35,8 ºC del día 22/06/2017
  • 4 - 35,1 ºC del día 21/06/2017
  • 5 - 34,8 ºC del día 20/06/2017
  • 6 - 32,6 ºC del día 19/06/2017
  • 7 - 35 ºC del día 18/06/2017
  • 8 - 34,9 ºC del día 17/06/2017
  • 9 - 35,5 ºC del día 16/06/2017
  • 10 - 36,2 ºC del día 15/06/2017
  • 11 - 34,6 ºC del día 14/06/2017
  • 12 - 33 ºC del día 13/06/2017
  • 13 - 33 ºC del día 12/06/2017
  • 14 - 33,8 ºC del día 11/06/2017
  • 15 - 30,9 ºC del día 10/06/2017
  • 16 - 29,3 ºC del día 09/06/2017
  • 17 - 29,3 ºC del día 08/06/2017
  • 18 - 28,4 ºC del día 07/06/2017
  • 19 - 34,6 ºC del día 06/06/2017
  • 20 - 30,3 ºC del día 05/06/2017
  • 21 - 28,9 ºC del día 04/06/2017
  • 22 - 31,9 ºC del día 03/06/2017
  • 23 - 30,4 ºC del día 02/06/2017
  • 24 - 29,8 ºC del día 01/06/2017
  • 25 - 28,7 ºC del día 31/05/2017
  • 26 - 28,5 ºC del día 30/05/2017
  • 27 - 28,7 ºC del día 29/05/2017
  • 28 - 29,1 ºC del día 28/05/2017
  • 29 - 30,3 ºC del día 27/05/2017
  • 30 - 30,8 ºC del día 26/05/2017
  • 31 - 30,8 ºC del día 25/05/2017
  • 32 - 28,5 ºC del día 24/05/2017
  • 33 - 28,8 ºC del día 23/05/2017
  • 34 - 28,8 ºC del día 22/05/2017
  • 35 - 25,5 ºC del día 21/05/2017
  • 36 - 26,4 ºC del día 20/05/2017
  • 37 - 25,4 ºC del día 19/05/2017
  • 38 - 29,6 ºC del día 18/05/2017
  • 39 - 28,9 ºC del día 17/05/2017
  • 40 - 30,3 ºC del día 16/05/2017
  • 41 - 30,3 ºC del día 15/05/2017
  • 42 - 30,3 ºC del día 14/05/2017
  • 43 - 28,6 ºC del día 13/05/2017
  • 44 - 26,6 ºC del día 12/05/2017
  • 45 - 27,1 ºC del día 11/05/2017
  • 46 - 29,4 ºC del día 10/05/2017
  • 47 - 28,8 ºC del día 09/05/2017
  • 48 - 30 ºC del día 08/05/2017
  • 49 - 28,3 ºC del día 07/05/2017
  • 50 - 27,8 ºC del día 06/05/2017
  • 51 - 25,8 ºC del día 05/05/2017
  • 52 - 25,3 ºC del día 04/05/2017
  • 53 - 25,1 ºC del día 03/05/2017
  • 54 - 25 ºC del día 02/05/2017
  • 55 - 17,5 ºC del día 01/05/2017
  • 56 - 17,5 ºC del día 30/04/2017
  • 57 - 17,5 ºC del día 29/04/2017
  • 58 - 17,5 ºC del día 28/04/2017
  • 59 - 17,5 ºC del día 27/04/2017
  • 60 - 27,3 ºC del día 26/04/2017

||Volver al inicio de la página||


Temperatura mínima

  • 1 - 22,6 ºC del día 24/06/2017
  • 2 - 22 ºC del día 23/06/2017
  • 3 - 21,2 ºC del día 22/06/2017
  • 4 - 21,6 ºC del día 21/06/2017
  • 5 - 22 ºC del día 20/06/2017
  • 6 - 21,1 ºC del día 19/06/2017
  • 7 - 22,6 ºC del día 18/06/2017
  • 8 - 21,4 ºC del día 17/06/2017
  • 9 - 23,3 ºC del día 16/06/2017
  • 10 - 20,5 ºC del día 15/06/2017
  • 11 - 19,9 ºC del día 14/06/2017
  • 12 - 19,8 ºC del día 13/06/2017
  • 13 - 18,7 ºC del día 12/06/2017
  • 14 - 17,7 ºC del día 11/06/2017
  • 15 - 19,3 ºC del día 10/06/2017
  • 16 - 18,9 ºC del día 09/06/2017
  • 17 - 17,9 ºC del día 08/06/2017
  • 18 - 20,2 ºC del día 07/06/2017
  • 19 - 16,9 ºC del día 06/06/2017
  • 20 - 17,7 ºC del día 05/06/2017
  • 21 - 20,1 ºC del día 04/06/2017
  • 22 - 18,6 ºC del día 03/06/2017
  • 23 - 17,7 ºC del día 02/06/2017
  • 24 - 17,9 ºC del día 01/06/2017
  • 25 - 17,6 ºC del día 31/05/2017
  • 26 - 18,8 ºC del día 30/05/2017
  • 27 - 18,2 ºC del día 29/05/2017
  • 28 - 18,6 ºC del día 28/05/2017
  • 29 - 18,3 ºC del día 27/05/2017
  • 30 - 17,6 ºC del día 26/05/2017
  • 31 - 15,9 ºC del día 25/05/2017
  • 32 - 15,9 ºC del día 24/05/2017
  • 33 - 15,2 ºC del día 23/05/2017
  • 34 - 16,2 ºC del día 22/05/2017
  • 35 - 14,4 ºC del día 21/05/2017
  • 36 - 14,1 ºC del día 20/05/2017
  • 37 - 16,9 ºC del día 19/05/2017
  • 38 - 14,3 ºC del día 18/05/2017
  • 39 - 15,2 ºC del día 17/05/2017
  • 40 - 16,7 ºC del día 16/05/2017
  • 41 - 16,7 ºC del día 15/05/2017
  • 42 - 16,7 ºC del día 14/05/2017
  • 43 - 15,3 ºC del día 13/05/2017
  • 44 - 16,9 ºC del día 12/05/2017
  • 45 - 16,9 ºC del día 11/05/2017
  • 46 - 16 ºC del día 10/05/2017
  • 47 - 14,8 ºC del día 09/05/2017
  • 48 - 13,3 ºC del día 08/05/2017
  • 49 - 14,3 ºC del día 07/05/2017
  • 50 - 15,6 ºC del día 06/05/2017
  • 51 - 14,4 ºC del día 05/05/2017
  • 52 - 11,8 ºC del día 04/05/2017
  • 53 - 11,4 ºC del día 03/05/2017
  • 54 - 11,1 ºC del día 02/05/2017
  • 55 - 11,7 ºC del día 01/05/2017
  • 56 - 11,7 ºC del día 30/04/2017
  • 57 - 11,7 ºC del día 29/04/2017
  • 58 - 11,7 ºC del día 28/04/2017
  • 59 - 11,7 ºC del día 27/04/2017
  • 60 - 14,3 ºC del día 26/04/2017

 

|| Humedad relativa|| Velocidad y dirección del viento|| Precipitación|| Radiación Solar Global y PAR|| Temperatura y humedad del suelo|| Presión atmosférica|| Más información|| Volver a la página principal|| Volver al inicio de la página||


Estación Meteorológica de la Universidad de Murcia
http://estacion.um.es/
Informacion actualizada a: 25/06/2017 a las 20:48:00